Time,TemperatureF,DewpointF,PressureIn,WindDirection,WindDirectionDegrees,WindSpeedMPH,WindSpeedGustMPH,Humidity,HourlyPrecipIn,Conditions,Clouds,dailyrainin,SoftwareType,DateUTC
2013-04-23 00:01:00,42.0,34.7,30.51,ENE,68,3.0,5.0,75,0.00,,---,0.00,VWS V14.01,2013-04-23 04:01:00,
2013-04-23 00:06:00,41.9,34.6,30.51,ENE,58,1.0,3.0,75,0.00,,---,0.00,VWS V14.01,2013-04-23 04:06:00,
2013-04-23 00:11:00,41.9,34.6,30.51,NE,37,2.0,4.0,75,0.00,,---,0.00,VWS V14.01,2013-04-23 04:11:00,
2013-04-23 00:16:00,42.0,35.0,30.50,ENE,65,2.0,4.0,76,0.00,,---,0.00,VWS V14.01,2013-04-23 04:16:00,
2013-04-23 00:21:00,42.0,35.0,30.50,ENE,66,2.0,4.0,76,0.00,,---,0.00,VWS V14.01,2013-04-23 04:21:00,
2013-04-23 00:26:00,42.1,35.1,30.50,NE,41,3.0,4.0,76,0.00,,---,0.00,VWS V14.01,2013-04-23 04:26:00,
2013-04-23 00:31:00,42.0,35.3,30.50,NE,43,2.0,3.0,77,0.00,,---,0.00,VWS V14.01,2013-04-23 04:31:00,
2013-04-23 00:36:00,42.0,35.3,30.50,NE,45,2.0,3.0,77,0.00,,---,0.00,VWS V14.01,2013-04-23 04:36:00,
2013-04-23 00:41:00,42.0,35.3,30.50,ENE,59,2.0,3.0,77,0.00,,---,0.00,VWS V14.01,2013-04-23 04:41:00,
2013-04-23 00:46:00,42.0,35.3,30.50,ENE,70,1.0,3.0,77,0.00,,---,0.00,VWS V14.01,2013-04-23 04:46:00,
2013-04-23 00:51:00,42.0,35.7,30.50,NE,45,1.0,4.0,78,0.00,,---,0.00,VWS V14.01,2013-04-23 04:51:00,
2013-04-23 00:56:00,42.0,35.7,30.49,ENE,58,2.0,4.0,78,0.00,,---,0.00,VWS V14.01,2013-04-23 04:56:00,
2013-04-23 01:01:00,42.0,35.7,30.50,NE,55,1.0,3.0,78,0.00,,---,0.00,VWS V14.01,2013-04-23 05:01:00,
2013-04-23 01:06:00,42.0,35.7,30.50,NE,40,2.0,4.0,78,0.00,,---,0.00,VWS V14.01,2013-04-23 05:06:00,
2013-04-23 01:11:00,42.1,35.8,30.49,ENE,70,4.0,5.0,78,0.00,,---,0.00,VWS V14.01,2013-04-23 05:11:00,
2013-04-23 01:16:00,42.1,35.4,30.49,NNE,28,4.0,8.0,77,0.00,,---,0.00,VWS V14.01,2013-04-23 05:16:00,
2013-04-23 01:21:00,42.2,35.5,30.49,East,86,2.0,8.0,77,0.00,,---,0.00,VWS V14.01,2013-04-23 05:21:00,
2013-04-23 01:26:00,42.2,35.2,30.49,ENE,65,3.0,8.0,76,0.00,,---,0.00,VWS V14.01,2013-04-23 05:26:00,
2013-04-23 01:31:00,42.1,35.1,30.49,ESE,111,0.0,1.0,76,0.00,,---,0.00,VWS V14.01,2013-04-23 05:31:00,
2013-04-23 01:36:00,42.1,35.1,30.48,NE,56,2.0,6.0,76,0.00,,---,0.00,VWS V14.01,2013-04-23 05:36:00,
2013-04-23 01:41:00,42.0,34.7,30.48,ENE,73,2.0,6.0,75,0.00,,---,0.00,VWS V14.01,2013-04-23 05:41:00,
2013-04-23 01:46:00,41.9,34.6,30.48,ENE,63,2.0,7.0,75,0.00,,---,0.00,VWS V14.01,2013-04-23 05:46:00,
2013-04-23 01:51:00,41.9,34.9,30.48,NE,51,1.0,7.0,76,0.00,,---,0.00,VWS V14.01,2013-04-23 05:51:00,
2013-04-23 01:56:00,41.8,35.1,30.47,NNE,22,6.0,7.0,77,0.00,,---,0.00,VWS V14.01,2013-04-23 05:56:00,
2013-04-23 02:01:00,41.8,34.8,30.47,NE,36,3.0,4.0,76,0.00,,---,0.00,VWS V14.01,2013-04-23 06:01:00,
2013-04-23 02:06:00,41.7,35.0,30.47,NE,43,3.0,5.0,77,0.00,,---,0.00,VWS V14.01,2013-04-23 06:06:00,
2013-04-23 02:11:00,41.7,34.7,30.47,NE,43,2.0,5.0,76,0.00,,---,0.00,VWS V14.01,2013-04-23 06:11:00,
2013-04-23 02:16:00,41.7,34.4,30.46,ENE,63,2.0,6.0,75,0.00,,---,0.00,VWS V14.01,2013-04-23 06:16:00,
2013-04-23 02:21:00,41.7,34.4,30.45,NE,51,2.0,6.0,75,0.00,,---,0.00,VWS V14.01,2013-04-23 06:21:00,
2013-04-23 02:26:00,41.6,34.3,30.45,ENE,72,3.0,6.0,75,0.00,,---,0.00,VWS V14.01,2013-04-23 06:26:00,
2013-04-23 02:31:00,41.6,34.6,30.45,NE,45,2.0,2.0,76,0.00,,---,0.00,VWS V14.01,2013-04-23 06:31:00,
2013-04-23 02:36:00,41.7,34.7,30.45,NE,51,1.0,3.0,76,0.00,,---,0.00,VWS V14.01,2013-04-23 06:36:00,
2013-04-23 02:41:00,41.7,34.4,30.45,ENE,75,3.0,5.0,75,0.00,,---,0.00,VWS V14.01,2013-04-23 06:41:00,
2013-04-23 02:46:00,41.7,34.4,30.45,NE,56,1.0,5.0,75,0.00,,---,0.00,VWS V14.01,2013-04-23 06:46:00,
2013-04-23 02:51:00,41.7,34.4,30.45,ENE,60,1.0,5.0,75,0.00,,---,0.00,VWS V14.01,2013-04-23 06:51:00,
2013-04-23 02:56:00,41.7,34.0,30.45,NNE,26,2.0,6.0,74,0.00,,---,0.00,VWS V14.01,2013-04-23 06:56:00,
2013-04-23 03:01:00,41.7,33.7,30.45,ENE,71,4.0,4.0,73,0.00,,---,0.00,VWS V14.01,2013-04-23 07:01:00,
2013-04-23 03:06:00,41.7,33.7,30.45,ENE,78,1.0,6.0,73,0.00,,---,0.00,VWS V14.01,2013-04-23 07:06:00,
2013-04-23 03:11:00,41.5,32.8,30.44,NE,50,2.0,6.0,71,0.00,,---,0.00,VWS V14.01,2013-04-23 07:11:00,
2013-04-23 03:16:00,41.2,32.2,30.44,NE,37,2.0,6.0,70,0.00,,---,0.00,VWS V14.01,2013-04-23 07:16:00,
2013-04-23 03:21:00,41.0,32.0,30.44,ENE,72,4.0,7.0,70,0.00,,---,0.00,VWS V14.01,2013-04-23 07:21:00,
2013-04-23 03:26:00,40.8,32.1,30.44,East,84,2.0,7.0,71,0.00,,---,0.00,VWS V14.01,2013-04-23 07:26:00,
2013-04-23 03:31:00,40.6,32.3,30.44,ENE,70,2.0,2.0,72,0.00,,---,0.00,VWS V14.01,2013-04-23 07:31:00,
2013-04-23 03:36:00,40.4,32.1,30.44,East,82,2.0,4.0,72,0.00,,---,0.00,VWS V14.01,2013-04-23 07:36:00,
2013-04-23 03:41:00,40.2,32.2,30.44,NE,40,2.0,7.0,73,0.00,,---,0.00,VWS V14.01,2013-04-23 07:41:00,
2013-04-23 03:46:00,40.1,32.5,30.44,NE,48,3.0,7.0,74,0.00,,---,0.00,VWS V14.01,2013-04-23 07:46:00,
2013-04-23 03:51:00,40.0,32.4,30.44,ENE,73,1.0,7.0,74,0.00,,---,0.00,VWS V14.01,2013-04-23 07:51:00,
2013-04-23 03:56:00,39.7,32.1,30.44,ENE,66,1.0,7.0,74,0.00,,---,0.00,VWS V14.01,2013-04-23 07:56:00,
2013-04-23 04:01:00,39.6,32.3,30.44,NE,45,1.0,1.0,75,0.00,,---,0.00,VWS V14.01,2013-04-23 08:01:00,
2013-04-23 04:06:00,39.5,32.2,30.44,ENE,66,2.0,2.0,75,0.00,,---,0.00,VWS V14.01,2013-04-23 08:06:00,
2013-04-23 04:11:00,39.5,32.9,30.44,NNE,23,5.0,5.0,77,0.00,,---,0.00,VWS V14.01,2013-04-23 08:11:00,
2013-04-23 04:16:00,39.4,32.8,30.43,ENE,65,2.0,5.0,77,0.00,,---,0.00,VWS V14.01,2013-04-23 08:16:00,
2013-04-23 04:21:00,39.4,32.2,30.43,ENE,71,3.0,7.0,75,0.00,,---,0.00,VWS V14.01,2013-04-23 08:21:00,
2013-04-23 04:26:00,39.2,32.3,30.43,NNE,25,5.0,7.0,76,0.00,,---,0.00,VWS V14.01,2013-04-23 08:26:00,
2013-04-23 04:31:00,39.2,32.0,30.43,NE,42,2.0,2.0,75,0.00,,---,0.00,VWS V14.01,2013-04-23 08:31:00,
2013-04-23 04:36:00,38.9,31.7,30.43,ENE,66,3.0,3.0,75,0.00,,---,0.00,VWS V14.01,2013-04-23 08:36:00,
2013-04-23 04:41:00,38.8,31.9,30.43,NE,42,5.0,9.0,76,0.00,,---,0.00,VWS V14.01,2013-04-23 08:41:00,
2013-04-23 04:46:00,38.7,31.1,30.43,NE,53,3.0,9.0,74,0.00,,---,0.00,VWS V14.01,2013-04-23 08:46:00,
2013-04-23 04:51:00,38.5,31.3,30.43,NE,48,4.0,9.0,75,0.00,,---,0.00,VWS V14.01,2013-04-23 08:51:00,
2013-04-23 04:56:00,38.3,31.4,30.43,NE,43,2.0,9.0,76,0.00,,---,0.00,VWS V14.01,2013-04-23 08:56:00,
2013-04-23 05:01:00,38.3,31.4,30.43,NE,46,4.0,4.0,76,0.00,,---,0.00,VWS V14.01,2013-04-23 09:01:00,
2013-04-23 05:06:00,38.2,31.3,30.43,NE,39,3.0,4.0,76,0.00,,---,0.00,VWS V14.01,2013-04-23 09:06:00,
2013-04-23 05:11:00,38.0,30.8,30.43,ENE,58,3.0,4.0,75,0.00,,---,0.00,VWS V14.01,2013-04-23 09:11:00,
2013-04-23 05:16:00,37.9,31.0,30.43,NE,41,2.0,4.0,76,0.00,,---,0.00,VWS V14.01,2013-04-23 09:16:00,
2013-04-23 05:21:00,37.7,30.8,30.43,NE,41,3.0,4.0,76,0.00,,---,0.00,VWS V14.01,2013-04-23 09:21:00,
2013-04-23 05:26:00,37.7,31.1,30.43,ENE,58,1.0,4.0,77,0.00,,---,0.00,VWS V14.01,2013-04-23 09:26:00,
2013-04-23 05:31:00,37.6,31.1,30.43,NE,51,1.0,1.0,77,0.00,,---,0.00,VWS V14.01,2013-04-23 09:31:00,
2013-04-23 05:36:00,37.7,31.5,30.42,North,11,1.0,3.0,78,0.00,,---,0.00,VWS V14.01,2013-04-23 09:36:00,
2013-04-23 05:41:00,37.8,31.9,30.42,NNE,25,2.0,6.0,79,0.00,,---,0.00,VWS V14.01,2013-04-23 09:41:00,
2013-04-23 05:46:00,37.9,31.7,30.42,NE,46,2.0,6.0,78,0.00,,---,0.00,VWS V14.01,2013-04-23 09:46:00,
2013-04-23 05:51:00,37.9,31.7,30.42,NNE,22,3.0,7.0,78,0.00,,---,0.00,VWS V14.01,2013-04-23 09:51:00,
2013-04-23 05:56:00,37.9,31.4,30.42,NE,55,5.0,9.0,77,0.00,,---,0.00,VWS V14.01,2013-04-23 09:56:00,
2013-04-23 06:01:00,37.8,31.2,30.42,NE,40,3.0,9.0,77,0.00,,---,0.00,VWS V14.01,2013-04-23 10:01:00,
2013-04-23 06:06:00,37.8,30.9,30.42,East,84,1.0,8.0,76,0.00,,---,0.00,VWS V14.01,2013-04-23 10:06:00,
2013-04-23 06:11:00,37.7,30.8,30.42,NNE,33,3.0,8.0,76,0.00,,---,0.00,VWS V14.01,2013-04-23 10:11:00,
2013-04-23 06:16:00,37.6,30.7,30.42,NE,51,3.0,8.0,76,0.00,,---,0.00,VWS V14.01,2013-04-23 10:16:00,
2013-04-23 06:20:00,37.6,31.1,30.42,NNE,30,3.0,8.0,77,0.00,,---,0.00,VWS V14.01,2013-04-23 10:20:00,
2013-04-23 06:25:00,37.7,31.1,30.42,NE,45,1.0,8.0,77,0.00,,---,0.00,VWS V14.01,2013-04-23 10:25:00,
2013-04-23 06:30:00,37.8,31.2,30.42,NNE,30,3.0,8.0,77,0.00,,---,0.00,VWS V14.01,2013-04-23 10:30:00,
2013-04-23 06:35:00,37.9,31.7,30.42,NE,41,1.0,4.0,78,0.00,,---,0.00,VWS V14.01,2013-04-23 10:35:00,
2013-04-23 06:40:00,38.0,31.4,30.42,NE,45,3.0,6.0,77,0.00,,---,0.00,VWS V14.01,2013-04-23 10:40:00,
2013-04-23 06:45:00,38.2,31.6,30.42,NNE,32,3.0,6.0,77,0.00,,---,0.00,VWS V14.01,2013-04-23 10:45:00,
2013-04-23 06:50:00,38.4,31.5,30.42,NE,54,2.0,8.0,76,0.00,,---,0.00,VWS V14.01,2013-04-23 10:50:00,
2013-04-23 06:55:00,38.3,31.4,30.42,NNE,25,3.0,8.0,76,0.00,,---,0.00,VWS V14.01,2013-04-23 10:55:00,
2013-04-23 07:00:00,38.4,31.2,30.42,NE,42,2.0,8.0,75,0.00,,---,0.00,VWS V14.01,2013-04-23 11:00:00,
2013-04-23 07:05:00,38.5,31.3,30.41,NNE,30,4.0,5.0,75,0.00,,---,0.00,VWS V14.01,2013-04-23 11:05:00,
2013-04-23 07:10:00,38.7,31.8,30.42,NNE,26,7.0,8.0,76,0.00,,---,0.00,VWS V14.01,2013-04-23 11:10:00,
2013-04-23 07:15:00,38.7,31.5,30.41,NE,39,1.0,8.0,75,0.00,,---,0.00,VWS V14.01,2013-04-23 11:15:00,
2013-04-23 07:20:00,38.8,31.6,30.41,NNE,26,4.0,11.0,75,0.00,,---,0.00,VWS V14.01,2013-04-23 11:20:00,
2013-04-23 07:25:00,38.8,31.2,30.41,NE,51,2.0,11.0,74,0.00,,---,0.00,VWS V14.01,2013-04-23 11:25:00,
2013-04-23 07:30:00,39.0,32.1,30.41,NNE,30,5.0,11.0,76,0.00,,---,0.00,VWS V14.01,2013-04-23 11:30:00,
2013-04-23 07:35:00,39.1,31.9,30.41,ENE,58,4.0,8.0,75,0.00,,---,0.00,VWS V14.01,2013-04-23 11:35:00,
2013-04-23 07:40:00,39.1,32.2,30.41,NE,51,4.0,8.0,76,0.00,,---,0.00,VWS V14.01,2013-04-23 11:40:00,
2013-04-23 07:45:00,39.2,31.6,30.41,NE,46,4.0,8.0,74,0.00,,---,0.00,VWS V14.01,2013-04-23 11:45:00,
2013-04-23 07:50:00,39.2,31.6,30.41,NE,42,7.0,8.0,74,0.00,,---,0.00,VWS V14.01,2013-04-23 11:50:00,
2013-04-23 07:55:00,39.2,31.6,30.41,NE,41,4.0,8.0,74,0.00,,---,0.00,VWS V14.01,2013-04-23 11:55:00,
2013-04-23 08:00:00,39.3,31.7,30.41,NE,49,4.0,8.0,74,0.00,,---,0.00,VWS V14.01,2013-04-23 12:00:00,
2013-04-23 08:05:00,39.3,32.0,30.40,ENE,68,3.0,12.0,75,0.00,,---,0.00,VWS V14.01,2013-04-23 12:05:00,
2013-04-23 08:10:00,39.3,31.4,30.40,East,82,3.0,12.0,73,0.00,,---,0.00,VWS V14.01,2013-04-23 12:10:00,
2013-04-23 08:15:00,39.3,31.7,30.40,NNE,31,11.0,12.0,74,0.00,,---,0.00,VWS V14.01,2013-04-23 12:15:00,
2013-04-23 08:20:00,39.3,31.7,30.40,ENE,58,4.0,12.0,74,0.00,,---,0.00,VWS V14.01,2013-04-23 12:20:00,
2013-04-23 08:25:00,39.4,31.8,30.40,ENE,64,4.0,12.0,74,0.00,,---,0.00,VWS V14.01,2013-04-23 12:25:00,
2013-04-23 08:30:00,39.4,31.8,30.40,ENE,60,4.0,12.0,74,0.00,,---,0.00,VWS V14.01,2013-04-23 12:30:00,
2013-04-23 08:35:00,39.6,32.3,30.40,NE,54,5.0,7.0,75,0.00,,---,0.00,VWS V14.01,2013-04-23 12:35:00,
2013-04-23 08:40:00,39.7,32.4,30.40,NE,43,4.0,7.0,75,0.00,,---,0.00,VWS V14.01,2013-04-23 12:40:00,
2013-04-23 08:45:00,39.9,32.6,30.40,NNE,30,4.0,7.0,75,0.00,,---,0.00,VWS V14.01,2013-04-23 12:45:00,
2013-04-23 08:50:00,40.1,32.8,30.40,NE,44,3.0,8.0,75,0.00,,---,0.00,VWS V14.01,2013-04-23 12:50:00,
2013-04-23 08:55:00,40.1,33.2,30.39,NE,43,4.0,9.0,76,0.00,,---,0.00,VWS V14.01,2013-04-23 12:55:00,
2013-04-23 09:00:00,40.2,32.9,30.39,ENE,68,3.0,9.0,75,0.00,,---,0.00,VWS V14.01,2013-04-23 13:00:00,
2013-04-23 09:05:00,40.4,33.5,30.39,ENE,64,3.0,6.0,76,0.00,,---,0.00,VWS V14.01,2013-04-23 13:05:00,
2013-04-23 09:10:00,40.5,32.9,30.39,NE,43,5.0,6.0,74,0.00,,---,0.00,VWS V14.01,2013-04-23 13:10:00,
2013-04-23 09:15:00,40.6,33.6,30.39,NNE,24,4.0,6.0,76,0.00,,---,0.00,VWS V14.01,2013-04-23 13:15:00,
2013-04-23 09:20:00,40.8,33.5,30.39,NNE,16,7.0,7.0,75,0.00,,---,0.00,VWS V14.01,2013-04-23 13:20:00,
2013-04-23 09:25:00,40.7,33.7,30.39,NNE,25,4.0,7.0,76,0.00,,---,0.00,VWS V14.01,2013-04-23 13:25:00,
2013-04-23 09:30:00,40.9,33.6,30.39,NE,45,2.0,7.0,75,0.00,,---,0.00,VWS V14.01,2013-04-23 13:30:00,
2013-04-23 09:35:00,41.1,33.5,30.39,NE,55,2.0,4.0,74,0.00,,---,0.00,VWS V14.01,2013-04-23 13:35:00,
2013-04-23 09:40:00,41.3,33.7,30.39,NNE,30,4.0,5.0,74,0.00,,---,0.00,VWS V14.01,2013-04-23 13:40:00,
2013-04-23 09:45:00,41.3,33.7,30.38,ENE,57,1.0,7.0,74,0.00,,---,0.00,VWS V14.01,2013-04-23 13:45:00,
2013-04-23 09:50:00,41.5,34.2,30.38,NNE,13,4.0,7.0,75,0.00,,---,0.00,VWS V14.01,2013-04-23 13:50:00,
2013-04-23 09:55:00,41.3,34.3,30.38,NNE,30,6.0,7.0,76,0.00,,---,0.00,VWS V14.01,2013-04-23 13:55:00,
2013-04-23 10:00:00,41.2,34.5,30.38,NE,42,4.0,9.0,77,0.00,,---,0.00,VWS V14.01,2013-04-23 14:00:00,
2013-04-23 10:05:00,41.1,34.1,30.38,NNE,30,4.0,8.0,76,0.00,,---,0.00,VWS V14.01,2013-04-23 14:05:00,
2013-04-23 10:10:00,41.3,34.7,30.38,NNE,30,2.0,8.0,77,0.00,,---,0.00,VWS V14.01,2013-04-23 14:10:00,
2013-04-23 10:15:00,41.4,34.4,30.38,NE,37,4.0,8.0,76,0.00,,---,0.00,VWS V14.01,2013-04-23 14:15:00,
2013-04-23 10:20:00,41.5,34.5,30.38,NNE,33,3.0,8.0,76,0.00,,---,0.00,VWS V14.01,2013-04-23 14:20:00,
2013-04-23 10:25:00,41.6,34.3,30.38,ENE,75,3.0,8.0,75,0.00,,---,0.00,VWS V14.01,2013-04-23 14:25:00,
2013-04-23 10:30:00,41.9,34.9,30.38,NNE,33,5.0,8.0,76,0.00,,---,0.00,VWS V14.01,2013-04-23 14:30:00,
2013-04-23 10:35:00,42.0,35.0,30.38,ENE,70,4.0,7.0,76,0.00,,---,0.00,VWS V14.01,2013-04-23 14:35:00,
2013-04-23 10:40:00,42.1,34.8,30.37,ENE,58,3.0,8.0,75,0.00,,---,0.00,VWS V14.01,2013-04-23 14:40:00,
2013-04-23 10:45:00,42.3,35.3,30.37,NE,53,4.0,8.0,76,0.00,,---,0.00,VWS V14.01,2013-04-23 14:45:00,
2013-04-23 10:50:00,42.5,34.8,30.37,NE,45,6.0,9.0,74,0.00,,---,0.00,VWS V14.01,2013-04-23 14:50:00,
2013-04-23 10:55:00,42.5,35.5,30.37,NNE,21,4.0,9.0,76,0.00,,---,0.00,VWS V14.01,2013-04-23 14:55:00,
2013-04-23 11:00:00,42.8,35.1,30.37,NE,44,3.0,10.0,74,0.00,,---,0.00,VWS V14.01,2013-04-23 15:00:00,
2013-04-23 11:05:00,42.8,35.8,30.37,NNE,26,8.0,9.0,76,0.00,,---,0.00,VWS V14.01,2013-04-23 15:05:00,
2013-04-23 11:10:00,42.7,35.7,30.36,NE,45,5.0,10.0,76,0.00,,---,0.00,VWS V14.01,2013-04-23 15:10:00,
2013-04-23 11:15:00,42.6,35.6,30.36,ENE,67,6.0,10.0,76,0.00,,---,0.00,VWS V14.01,2013-04-23 15:15:00,
2013-04-23 11:20:00,42.7,36.0,30.36,NNE,18,6.0,10.0,77,0.00,,---,0.00,VWS V14.01,2013-04-23 15:20:00,
2013-04-23 11:25:00,42.6,36.2,30.36,NE,36,9.0,10.0,78,0.00,,---,0.00,VWS V14.01,2013-04-23 15:25:00,
2013-04-23 11:30:00,42.5,36.5,30.36,NE,48,5.0,11.0,79,0.00,,---,0.00,VWS V14.01,2013-04-23 15:30:00,
2013-04-23 11:35:00,42.5,36.5,30.36,NE,51,1.0,9.0,79,0.00,,---,0.00,VWS V14.01,2013-04-23 15:35:00,
2013-04-23 11:40:00,42.8,36.8,30.35,NNE,16,4.0,9.0,79,0.00,,---,0.00,VWS V14.01,2013-04-23 15:40:00,
2013-04-23 11:45:00,42.5,36.5,30.35,NNE,28,8.0,11.0,79,0.00,,---,0.00,VWS V14.01,2013-04-23 15:45:00,
2013-04-23 11:50:00,42.4,37.3,30.35,NE,43,4.0,11.0,82,0.00,,---,0.00,VWS V14.01,2013-04-23 15:50:00,
2013-04-23 11:55:00,42.0,37.8,30.35,NNE,32,6.0,11.0,85,0.00,,---,0.00,VWS V14.01,2013-04-23 15:55:00,
2013-04-23 12:00:00,41.7,37.8,30.35,NNE,27,4.0,11.0,86,0.00,,---,0.00,VWS V14.01,2013-04-23 16:00:00,
2013-04-23 12:05:00,41.7,38.4,30.35,NE,56,4.0,7.0,88,0.00,,---,0.00,VWS V14.01,2013-04-23 16:05:00,
2013-04-23 12:10:00,42.0,39.0,30.34,NNE,26,6.0,7.0,89,0.00,,---,0.00,VWS V14.01,2013-04-23 16:10:00,
2013-04-23 12:15:00,41.9,38.3,30.34,NNE,24,6.0,7.0,87,0.00,,---,0.00,VWS V14.01,2013-04-23 16:15:00,
2013-04-23 12:20:00,41.9,38.6,30.34,NE,49,2.0,7.0,88,0.00,,---,0.00,VWS V14.01,2013-04-23 16:20:00,
2013-04-23 12:25:00,42.2,38.9,30.34,NNE,21,2.0,7.0,88,0.00,,---,0.00,VWS V14.01,2013-04-23 16:25:00,
2013-04-23 12:30:00,42.4,38.5,30.33,NE,43,4.0,7.0,86,0.00,,---,0.00,VWS V14.01,2013-04-23 16:30:00,
2013-04-23 12:35:00,42.6,38.7,30.33,NE,44,3.0,4.0,86,0.00,,---,0.00,VWS V14.01,2013-04-23 16:35:00,
2013-04-23 12:40:00,43.0,38.2,30.33,NE,41,5.0,6.0,83,0.00,,---,0.00,VWS V14.01,2013-04-23 16:40:00,
2013-04-23 12:45:00,42.9,38.1,30.32,NNE,26,4.0,7.0,83,0.00,,---,0.00,VWS V14.01,2013-04-23 16:45:00,
2013-04-23 12:50:00,43.2,38.4,30.32,ENE,78,3.0,7.0,83,0.00,,---,0.00,VWS V14.01,2013-04-23 16:50:00,
2013-04-23 12:55:00,43.4,38.3,30.32,ENE,58,3.0,7.0,82,0.00,,---,0.00,VWS V14.01,2013-04-23 16:55:00,
2013-04-23 13:00:00,43.5,38.4,30.31,East,88,5.0,9.0,82,0.00,,---,0.00,VWS V14.01,2013-04-23 17:00:00,
2013-04-23 13:05:00,43.6,38.2,30.31,NNE,22,4.0,8.0,81,0.00,,---,0.00,VWS V14.01,2013-04-23 17:05:00,
2013-04-23 13:10:00,43.7,38.3,30.31,NE,37,5.0,10.0,81,0.00,,---,0.00,VWS V14.01,2013-04-23 17:10:00,
2013-04-23 13:15:00,43.7,38.3,30.31,NE,46,5.0,10.0,81,0.00,,---,0.00,VWS V14.01,2013-04-23 17:15:00,
2013-04-23 13:20:00,43.9,38.5,30.31,ENE,68,2.0,10.0,81,0.00,,---,0.00,VWS V14.01,2013-04-23 17:20:00,
2013-04-23 13:25:00,43.9,38.5,30.30,NNE,30,8.0,11.0,81,0.00,,---,0.00,VWS V14.01,2013-04-23 17:25:00,
2013-04-23 13:30:00,44.0,38.9,30.30,NNE,33,5.0,11.0,82,0.00,,---,0.00,VWS V14.01,2013-04-23 17:30:00,
2013-04-23 13:35:00,44.1,39.0,30.30,NE,52,4.0,10.0,82,0.00,,---,0.00,VWS V14.01,2013-04-23 17:35:00,
2013-04-23 13:40:00,44.3,38.8,30.29,NE,44,5.0,10.0,81,0.00,,---,0.00,VWS V14.01,2013-04-23 17:40:00,
2013-04-23 13:45:00,44.5,39.0,30.30,NE,43,5.0,10.0,81,0.00,,---,0.00,VWS V14.01,2013-04-23 17:45:00,
2013-04-23 13:50:00,44.7,38.9,30.29,NE,44,5.0,10.0,80,0.00,,---,0.00,VWS V14.01,2013-04-23 17:50:00,
2013-04-23 13:55:00,44.7,38.9,30.29,NE,34,4.0,10.0,80,0.00,,---,0.00,VWS V14.01,2013-04-23 17:55:00,
2013-04-23 14:00:00,44.9,39.1,30.29,NE,48,2.0,10.0,80,0.00,,---,0.00,VWS V14.01,2013-04-23 18:00:00,
2013-04-23 14:05:00,44.9,39.1,30.29,NNE,28,4.0,6.0,80,0.00,,---,0.00,VWS V14.01,2013-04-23 18:05:00,
2013-04-23 14:10:00,45.1,39.3,30.28,NE,49,2.0,6.0,80,0.00,,---,0.00,VWS V14.01,2013-04-23 18:10:00,
2013-04-23 14:15:00,45.3,39.2,30.28,NNE,32,4.0,6.0,79,0.00,,---,0.00,VWS V14.01,2013-04-23 18:15:00,
2013-04-23 14:20:00,45.5,39.4,30.28,ENE,57,1.0,6.0,79,0.00,,---,0.00,VWS V14.01,2013-04-23 18:20:00,
2013-04-23 14:25:00,45.8,39.7,30.27,NNE,32,5.0,6.0,79,0.00,,---,0.00,VWS V14.01,2013-04-23 18:25:00,
2013-04-23 14:30:00,45.9,39.1,30.27,NNE,18,4.0,9.0,77,0.00,,---,0.00,VWS V14.01,2013-04-23 18:30:00,
2013-04-23 14:35:00,46.0,39.2,30.27,NE,43,4.0,6.0,77,0.00,,---,0.00,VWS V14.01,2013-04-23 18:35:00,
2013-04-23 14:40:00,46.3,39.8,30.26,NNE,31,8.0,8.0,78,0.00,,---,0.00,VWS V14.01,2013-04-23 18:40:00,
2013-04-23 14:45:00,46.3,39.2,30.26,NNE,28,6.0,8.0,76,0.00,,---,0.00,VWS V14.01,2013-04-23 18:45:00,
2013-04-23 14:50:00,46.6,39.5,30.26,NE,34,4.0,8.0,76,0.00,,---,0.00,VWS V14.01,2013-04-23 18:50:00,
2013-04-23 14:55:00,47.0,39.5,30.26,NE,53,4.0,8.0,75,0.00,,---,0.00,VWS V14.01,2013-04-23 18:55:00,
2013-04-23 15:00:00,47.1,39.2,30.26,NE,48,5.0,8.0,74,0.00,,---,0.00,VWS V14.01,2013-04-23 19:00:00,
2013-04-23 15:05:00,47.2,39.3,30.25,North,10,2.0,6.0,74,0.00,,---,0.00,VWS V14.01,2013-04-23 19:05:00,
2013-04-23 15:10:00,47.9,40.4,30.25,NE,39,3.0,6.0,75,0.00,,---,0.00,VWS V14.01,2013-04-23 19:10:00,
2013-04-23 15:15:00,48.2,39.6,30.25,NE,39,7.0,7.0,72,0.00,,---,0.00,VWS V14.01,2013-04-23 19:15:00,
2013-04-23 15:20:00,48.1,39.9,30.25,NNE,20,4.0,7.0,73,0.00,,---,0.00,VWS V14.01,2013-04-23 19:20:00,
2013-04-23 15:25:00,48.2,40.0,30.25,NNE,28,7.0,9.0,73,0.00,,---,0.00,VWS V14.01,2013-04-23 19:25:00,
2013-04-23 15:30:00,48.2,40.0,30.25,NNE,18,6.0,9.0,73,0.00,,---,0.00,VWS V14.01,2013-04-23 19:30:00,
2013-04-23 15:35:00,48.3,40.1,30.25,NE,53,2.0,6.0,73,0.00,,---,0.00,VWS V14.01,2013-04-23 19:35:00,
2013-04-23 15:40:00,48.5,40.2,30.25,NE,41,2.0,6.0,73,0.00,,---,0.00,VWS V14.01,2013-04-23 19:40:00,
2013-04-23 15:45:00,48.7,40.8,30.24,ENE,67,3.0,6.0,74,0.00,,---,0.00,VWS V14.01,2013-04-23 19:45:00,
2013-04-23 15:50:00,48.9,40.6,30.24,NE,46,5.0,6.0,73,0.00,,---,0.00,VWS V14.01,2013-04-23 19:50:00,
2013-04-23 15:55:00,49.1,40.8,30.24,NE,56,3.0,6.0,73,0.00,,---,0.00,VWS V14.01,2013-04-23 19:55:00,
2013-04-23 16:00:00,49.2,40.9,30.25,NNE,30,4.0,7.0,73,0.00,,---,0.00,VWS V14.01,2013-04-23 20:00:00,
2013-04-23 16:05:00,49.1,40.8,30.25,ENE,75,2.0,5.0,73,0.00,,---,0.00,VWS V14.01,2013-04-23 20:05:00,
2013-04-23 16:10:00,49.2,40.9,30.25,NE,41,4.0,5.0,73,0.00,,---,0.00,VWS V14.01,2013-04-23 20:10:00,
2013-04-23 16:15:00,49.1,41.2,30.25,NNE,24,2.0,5.0,74,0.00,,---,0.00,VWS V14.01,2013-04-23 20:15:00,
2013-04-23 16:20:00,49.2,41.3,30.25,NNE,27,5.0,7.0,74,0.00,,---,0.00,VWS V14.01,2013-04-23 20:20:00,
2013-04-23 16:25:00,49.1,41.5,30.25,NE,52,3.0,7.0,75,0.00,,---,0.00,VWS V14.01,2013-04-23 20:25:00,
2013-04-23 16:30:00,49.0,41.1,30.25,NE,44,2.0,7.0,74,0.00,,---,0.00,VWS V14.01,2013-04-23 20:30:00,
2013-04-23 16:35:00,49.2,41.6,30.25,NNE,18,2.0,2.0,75,0.00,,---,0.00,VWS V14.01,2013-04-23 20:35:00,
2013-04-23 16:40:00,49.4,41.5,30.25,NE,45,1.0,3.0,74,0.00,,---,0.00,VWS V14.01,2013-04-23 20:40:00,
2013-04-23 16:45:00,49.5,41.2,30.25,NNE,31,2.0,3.0,73,0.00,,---,0.00,VWS V14.01,2013-04-23 20:45:00,
2013-04-23 16:50:00,49.6,41.7,30.25,ENE,68,1.0,3.0,74,0.00,,---,0.00,VWS V14.01,2013-04-23 20:50:00,
2013-04-23 16:55:00,49.7,41.8,30.25,NE,49,2.0,3.0,74,0.00,,---,0.00,VWS V14.01,2013-04-23 20:55:00,
2013-04-23 17:00:00,49.8,41.2,30.25,NE,49,2.0,4.0,72,0.00,,---,0.00,VWS V14.01,2013-04-23 21:00:00,
2013-04-23 17:05:00,49.9,41.2,30.25,WNW,300,2.0,5.0,72,0.00,,---,0.00,VWS V14.01,2013-04-23 21:05:00,
2013-04-23 17:10:00,49.9,41.2,30.24,NE,45,2.0,5.0,72,0.00,,---,0.00,VWS V14.01,2013-04-23 21:10:00,
2013-04-23 17:15:00,49.9,41.6,30.24,North,8,2.0,6.0,73,0.00,,---,0.00,VWS V14.01,2013-04-23 21:15:00,
2013-04-23 17:20:00,49.9,41.2,30.24,NNE,33,6.0,6.0,72,0.00,,---,0.00,VWS V14.01,2013-04-23 21:20:00,
2013-04-23 17:25:00,49.7,40.7,30.23,NNE,26,6.0,7.0,71,0.00,,---,0.00,VWS V14.01,2013-04-23 21:25:00,
2013-04-23 17:30:00,49.7,40.7,30.23,NNE,22,3.0,7.0,71,0.00,,---,0.00,VWS V14.01,2013-04-23 21:30:00,
2013-04-23 17:35:00,49.8,40.8,30.22,North,4,2.0,6.0,71,0.00,,---,0.00,VWS V14.01,2013-04-23 21:35:00,
2013-04-23 17:40:00,50.1,40.7,30.21,NNE,33,4.0,7.0,70,0.00,,---,0.00,VWS V14.01,2013-04-23 21:40:00,
2013-04-23 17:45:00,50.2,40.8,30.21,NE,37,5.0,7.0,70,0.00,,---,0.00,VWS V14.01,2013-04-23 21:45:00,
2013-04-23 17:50:00,50.3,41.6,30.21,NE,37,7.0,7.0,72,0.00,,---,0.00,VWS V14.01,2013-04-23 21:50:00,
2013-04-23 17:55:00,50.4,41.0,30.20,NE,56,4.0,7.0,70,0.00,,---,0.00,VWS V14.01,2013-04-23 21:55:00,
2013-04-23 18:00:00,50.5,41.1,30.20,NNE,20,5.0,9.0,70,0.00,,---,0.00,VWS V14.01,2013-04-23 22:00:00,
2013-04-23 18:05:00,50.6,41.6,30.20,NNW,345,3.0,6.0,71,0.00,,---,0.00,VWS V14.01,2013-04-23 22:05:00,
2013-04-23 18:10:00,50.5,41.1,30.21,NNE,29,3.0,8.0,70,0.00,,---,0.00,VWS V14.01,2013-04-23 22:10:00,
2013-04-23 18:14:00,50.4,41.0,30.21,NE,41,4.0,8.0,70,0.00,,---,0.00,VWS V14.01,2013-04-23 22:14:00,
2013-04-23 18:19:00,50.4,41.0,30.21,NNE,32,4.0,8.0,70,0.00,,---,0.00,VWS V14.01,2013-04-23 22:19:00,
2013-04-23 18:24:00,50.3,40.9,30.20,NE,39,5.0,8.0,70,0.00,,---,0.00,VWS V14.01,2013-04-23 22:24:00,
2013-04-23 18:30:00,50.1,41.1,30.20,NE,44,2.0,8.0,71,0.00,,---,0.00,VWS V14.01,2013-04-23 22:30:00,
2013-04-23 18:35:00,50.1,40.7,30.21,NE,45,2.0,5.0,70,0.00,,---,0.00,VWS V14.01,2013-04-23 22:35:00,
2013-04-23 18:39:00,50.1,41.4,30.20,NE,53,3.0,5.0,72,0.00,,---,0.00,VWS V14.01,2013-04-23 22:39:00,
2013-04-23 18:44:00,50.3,41.6,30.20,East,93,0.0,5.0,72,0.00,,---,0.00,VWS V14.01,2013-04-23 22:44:00,
2013-04-23 18:49:00,50.3,40.9,30.20,NNW,345,2.0,5.0,70,0.00,,---,0.00,VWS V14.01,2013-04-23 22:49:00,
2013-04-23 18:55:00,50.3,40.9,30.20,West,280,2.0,5.0,70,0.00,,---,0.00,VWS V14.01,2013-04-23 22:55:00,
2013-04-23 19:00:00,50.1,40.7,30.20,North,352,3.0,7.0,70,0.00,,---,0.00,VWS V14.01,2013-04-23 23:00:00,
2013-04-23 19:05:00,49.9,40.5,30.20,NNW,345,3.0,5.0,70,0.00,,---,0.00,VWS V14.01,2013-04-23 23:05:00,
2013-04-23 19:10:00,49.8,41.2,30.20,NNE,31,6.0,9.0,72,0.00,,---,0.00,VWS V14.01,2013-04-23 23:10:00,
2013-04-23 19:15:00,49.7,40.7,30.19,NNW,345,2.0,9.0,71,0.00,,---,0.00,VWS V14.01,2013-04-23 23:15:00,
2013-04-23 19:20:00,49.6,41.0,30.19,East,82,2.0,9.0,72,0.00,,---,0.00,VWS V14.01,2013-04-23 23:20:00,
2013-04-23 19:25:00,49.4,40.4,30.19,NNE,23,1.0,9.0,71,0.00,,---,0.00,VWS V14.01,2013-04-23 23:25:00,
2013-04-23 19:30:00,49.2,40.6,30.19,NNE,23,3.0,9.0,72,0.00,,---,0.00,VWS V14.01,2013-04-23 23:30:00,
2013-04-23 19:35:00,49.1,40.1,30.19,NNW,337,3.0,5.0,71,0.00,,---,0.00,VWS V14.01,2013-04-23 23:35:00,
2013-04-23 19:39:00,49.0,40.4,30.19,NNE,28,3.0,6.0,72,0.00,,---,0.00,VWS V14.01,2013-04-23 23:39:00,
2013-04-23 19:44:00,48.8,40.2,30.18,NE,36,2.0,6.0,72,0.00,,---,0.00,VWS V14.01,2013-04-23 23:44:00,
2013-04-23 19:49:00,48.7,40.5,30.18,NE,41,1.0,6.0,73,0.00,,---,0.00,VWS V14.01,2013-04-23 23:49:00,
2013-04-23 19:54:00,48.5,40.2,30.17,NE,50,1.0,6.0,73,0.00,,---,0.00,VWS V14.01,2013-04-23 23:54:00,
2013-04-23 19:59:00,48.3,40.1,30.17,NE,50,0.0,6.0,73,0.00,,---,0.00,VWS V14.01,2013-04-23 23:59:00,
2013-04-23 20:04:00,48.0,40.1,30.17,NE,50,0.0,0.0,74,0.00,,---,0.00,VWS V14.01,2013-04-24 00:04:00,
2013-04-23 20:09:00,47.7,40.2,30.17,NNW,331,1.0,2.0,75,0.00,,---,0.00,VWS V14.01,2013-04-24 00:09:00,
2013-04-23 20:14:00,47.4,39.9,30.17,NNW,331,0.0,2.0,75,0.00,,---,0.00,VWS V14.01,2013-04-24 00:14:00,
2013-04-23 20:19:00,47.1,40.3,30.17,SSE,150,0.0,2.0,77,0.00,,---,0.00,VWS V14.01,2013-04-24 00:19:00,
2013-04-23 20:24:00,46.8,40.0,30.16,SSE,149,0.0,2.0,77,0.00,,---,0.00,VWS V14.01,2013-04-24 00:24:00,
2013-04-23 20:29:00,46.6,39.8,30.15,SSE,149,0.0,2.0,77,0.00,,---,0.00,VWS V14.01,2013-04-24 00:29:00,
2013-04-23 20:34:00,46.4,39.6,30.15,SSE,149,0.0,0.0,77,0.00,,---,0.00,VWS V14.01,2013-04-24 00:34:00,
2013-04-23 20:39:00,46.1,40.0,30.15,SSE,149,0.0,0.0,79,0.00,,---,0.00,VWS V14.01,2013-04-24 00:39:00,
2013-04-23 20:44:00,45.8,39.7,30.15,SSE,150,0.0,0.0,79,0.00,,---,0.00,VWS V14.01,2013-04-24 00:44:00,
2013-04-23 20:49:00,45.5,40.0,30.15,SSE,152,0.0,1.0,81,0.00,,---,0.00,VWS V14.01,2013-04-24 00:49:00,
2013-04-23 20:54:00,45.2,39.7,30.15,SSE,152,0.0,1.0,81,0.00,,---,0.00,VWS V14.01,2013-04-24 00:54:00,
2013-04-23 20:59:00,45.1,39.9,30.16,SSE,152,0.0,1.0,82,0.00,,---,0.00,VWS V14.01,2013-04-24 00:59:00,
2013-04-23 21:04:00,44.9,39.4,30.16,SSE,152,0.0,0.0,81,0.00,,---,0.00,VWS V14.01,2013-04-24 01:04:00,
2013-04-23 21:09:00,44.9,39.4,30.16,SSE,152,0.0,0.0,81,0.00,,---,0.00,VWS V14.01,2013-04-24 01:09:00,
2013-04-23 21:14:00,44.9,39.4,30.16,SSE,153,0.0,1.0,81,0.00,,---,0.00,VWS V14.01,2013-04-24 01:14:00,
2013-04-23 21:19:00,45.0,39.5,30.16,SSE,152,0.0,1.0,81,0.00,,---,0.00,VWS V14.01,2013-04-24 01:19:00,
2013-04-23 21:24:00,44.9,39.4,30.16,SE,132,1.0,1.0,81,0.00,,---,0.00,VWS V14.01,2013-04-24 01:24:00,
2013-04-23 21:29:00,44.8,39.3,30.16,SE,132,0.0,2.0,81,0.00,,---,0.00,VWS V14.01,2013-04-24 01:29:00,
2013-04-23 21:34:00,44.7,39.5,30.17,SE,133,0.0,1.0,82,0.00,,---,0.00,VWS V14.01,2013-04-24 01:34:00,
2013-04-23 21:39:00,44.9,39.4,30.17,WNW,300,0.0,1.0,81,0.00,,---,0.00,VWS V14.01,2013-04-24 01:39:00,
2013-04-23 21:44:00,44.9,39.4,30.16,SSE,149,0.0,1.0,81,0.00,,---,0.00,VWS V14.01,2013-04-24 01:44:00,
2013-04-23 21:49:00,44.9,39.4,30.17,SSE,149,0.0,1.0,81,0.00,,---,0.00,VWS V14.01,2013-04-24 01:49:00,
2013-04-23 21:54:00,44.7,39.5,30.16,SSE,148,0.0,1.0,82,0.00,,---,0.00,VWS V14.01,2013-04-24 01:54:00,
2013-04-23 21:59:00,44.4,39.3,30.16,SSE,150,0.0,1.0,82,0.00,,---,0.00,VWS V14.01,2013-04-24 01:59:00,
2013-04-23 22:04:00,44.2,39.4,30.16,SSE,149,0.0,0.0,83,0.00,,---,0.00,VWS V14.01,2013-04-24 02:04:00,
2013-04-23 22:09:00,44.0,39.2,30.16,SE,142,0.0,1.0,83,0.00,,---,0.00,VWS V14.01,2013-04-24 02:09:00,
2013-04-23 22:14:00,43.9,39.1,30.16,SE,142,1.0,1.0,83,0.00,,---,0.00,VWS V14.01,2013-04-24 02:14:00,
2013-04-23 22:19:00,43.9,39.1,30.16,SE,145,1.0,2.0,83,0.00,,---,0.00,VWS V14.01,2013-04-24 02:19:00,
2013-04-23 22:25:00,43.9,39.1,30.15,SE,145,0.0,2.0,83,0.00,,---,0.00,VWS V14.01,2013-04-24 02:25:00,
2013-04-23 22:30:00,43.8,39.0,30.15,SE,141,0.0,3.0,83,0.00,,---,0.00,VWS V14.01,2013-04-24 02:30:00,
2013-04-23 22:35:00,43.8,39.0,30.15,SE,141,0.0,1.0,83,0.00,,---,0.00,VWS V14.01,2013-04-24 02:35:00,
2013-04-23 22:40:00,43.7,39.2,30.15,SE,141,0.0,1.0,84,0.00,,---,0.00,VWS V14.01,2013-04-24 02:40:00,
2013-04-23 22:45:00,43.5,39.0,30.15,SE,142,0.0,1.0,84,0.00,,---,0.00,VWS V14.01,2013-04-24 02:45:00,
2013-04-23 22:50:00,43.3,38.8,30.15,SE,125,0.0,2.0,84,0.00,,---,0.00,VWS V14.01,2013-04-24 02:50:00,
2013-04-23 22:55:00,43.5,39.0,30.14,East,79,0.0,2.0,84,0.00,,---,0.00,VWS V14.01,2013-04-24 02:55:00,
2013-04-23 23:00:00,43.6,39.1,30.14,SE,145,1.0,2.0,84,0.00,,---,0.00,VWS V14.01,2013-04-24 03:00:00,
2013-04-23 23:05:00,43.8,39.0,30.14,SSW,195,0.0,1.0,83,0.00,,---,0.00,VWS V14.01,2013-04-24 03:05:00,
2013-04-23 23:10:00,44.1,39.3,30.14,ENE,60,0.0,3.0,83,0.00,,---,0.00,VWS V14.01,2013-04-24 03:10:00,
2013-04-23 23:15:00,44.4,39.3,30.14,NE,49,1.0,3.0,82,0.00,,---,0.00,VWS V14.01,2013-04-24 03:15:00,
2013-04-23 23:20:00,44.8,39.3,30.14,NNE,30,4.0,4.0,81,0.00,,---,0.00,VWS V14.01,2013-04-24 03:20:00,
2013-04-23 23:25:00,45.1,39.3,30.14,NW,310,0.0,4.0,80,0.00,,---,0.00,VWS V14.01,2013-04-24 03:25:00,
2013-04-23 23:30:00,44.8,39.3,30.14,SSE,147,0.0,4.0,81,0.00,,---,0.00,VWS V14.01,2013-04-24 03:30:00,
2013-04-23 23:35:00,44.5,39.0,30.14,SE,141,0.0,2.0,81,0.00,,---,0.00,VWS V14.01,2013-04-24 03:35:00,
2013-04-23 23:40:00,44.5,39.0,30.14,ENE,65,1.0,3.0,81,0.00,,---,0.00,VWS V14.01,2013-04-24 03:40:00,
2013-04-23 23:45:00,44.3,38.8,30.13,SE,136,2.0,3.0,81,0.00,,---,0.00,VWS V14.01,2013-04-24 03:45:00,
2013-04-23 23:50:00,44.0,38.9,30.13,SE,142,3.0,3.0,82,0.00,,---,0.00,VWS V14.01,2013-04-24 03:50:00,
2013-04-23 23:55:00,44.0,38.9,30.13,East,85,2.0,3.0,82,0.00,,---,0.00,VWS V14.01,2013-04-24 03:55:00,